Location: Unspecified
(0.0000°N, 0.0000°E)
Time: 14:56:49
(UTC+00:00)

BREEZE-M R/B - Pass Details

Date: 01 November 2020
Orbit: 3083 x 63194 km, 23.7° (Epoch: 26 November)

Event Time Altitude Azimuth Distance (km) Brightness Sun altitude
Rises 23:55:53 0° 254° (WSW) 8,096 ? -75.2°
Reaches altitude 10° 00:01:41 10° 242° (WSW) 6,284 ? -74.8°
Enters shadow 00:03:50 15° 235° (SW) 5,702 ? -74.7°
Exits shadow 00:15:38 32° 167° (SSE) 4,788 ? -73.5°
Drops below altitude 10° 00:36:34 10° 110° (ESE) 10,538 ? -70.4°
Sets 00:59:32 0° 96° (E) 17,150 ? -66.3°
